Location: Cicognara
(44.9500°N, 10.4667°E)
Time: 23:35:04
(UTC+00:00)

BREEZE-M DEB (TANK) - Pass Details

Date: 20 June 2021
Orbit: 320 x 12038 km, 49.6° (Epoch: 23 July)

Event Time Altitude Azimuth Distance (km) Brightness Sun altitude
Rises 22:52:45 0° 280° (W) 2,416 5.6 -21.3°
Reaches altitude 10° 22:54:11 10° 286° (WNW) 1,785 5.0 -21.4°
Maximum altitude 22:57:43 54° 6° (N) 1,055 3.8 -21.4°
Drops below altitude 10° 23:08:14 10° 83° (E) 5,129 7.0 -21.6°
Sets 23:15:43 0° 88° (E) 7,932 8.0 -21.6°
